SCP
0 0 0 0 0 0 0 0 0 0 0 0 0 0 0 0 0 0 0 0 0 0 0 0 0 0 0 0 0 0 0 0 0 0 0 0 0 0 0 0 0 0 0 0 0 0 0
0 0 0 0 0 0 0 0 0 0 0 0 0 0 0 0 0 0 0 0 0 0 0 0 0 0 0 0 0 0 0 0 0 0 0 0 0 0 0 0 0 0 0 0 0 0 0
0 0 0 0 0 0 0 0 0 0 0 0 0 0 0 0 0 0 0 0 0 0 0 -0 -0 0 0 0 0 0 0 0 0 0 0 0 0 0 0 0 0 0 0 0 0 0 0
0 0 0 0 0 0 0 0 0 0 0 0 0 0 0 0 0 0 0 0 0 -0 -0 -0 -0 0 0 0 0 0 0 0 0 0 0 0 0 0 0 0 0 0 0 0 0 0 0
0 0 0 0 0 0 0 0 0 0 0 0 0 0 0 0 0 0 0 0 -0 -0 -0 -0 0 0 0 0 0 0 0 0 0 0 0 0 0 0 0 0 0 0 0 0 0 0 0
0 0 0 0 0 0 0 0 0 0 0 0 0 0 0 0 0 0 0 0 -0 -0 0 -0 0 0 0 0 0 0 0 0 0 0 0 0 0 0 0 0 0 0 0 0 0 0 0
0 0 0 0 0 0 0 0 0 0 0 0 0 0 0 0 0 0 0 -0 0 0 0 0 0 0 0 0 0 0 0 0 0 0 0 0 0 0 0 0 0 0 0 0 0 0 0
0 0 0 0 0 0 0 0 0 0 0 0 0 0 0 0 0 0 0 0 0 0 0 0 0 0 0 0 0 0 0 0 0 0 0 0 0 0 0 0 0 0 0 0 0 0 0
0 0 0 0 0 0 0 0 0 0 0 0 0 0 0 0 0 0 0 0 0 0 0 0 0 0 0 0 0 0 0 0 0 0 0 0 0 0 0 0 0 0 0 0 0 0 -0
0 0 0 0 0 0 0 0 0 0 0 0 0 0 0 0 0 0 0 0 0 0 0 0 0 0 0 0 0 0 0 0 0 0 0 0 0 0 0 0 0 0 0 0 0 0 0
0 0 0 0 0 0 0 0 0 0 0 0 0 0 0 0 0 0 0 0 0 0 0 0 0 0 0 0 0 0 0 0 0 0 0 0 0 0 0 0 0 0 0 0 0 0 0
0 0 0 0 0 0 0 0 0 0 0 0 0 0 0 0 0 0 0 0 0 0 0 0 0 0 0 0 0 0 0 0 0 0 0 0 0 0 0 0 0 0 0 0 0 0 0
0 0 0 0 0 0 0 0 0 0 0 0 0 0 0 0 0 0 0 0 0 0 0 0 0 0 0 0 0 0 0 0 0 0 0 0 0 0 0 0 0 0 0 0 0 0 0
0 0 0 0 0 0 0 0 0 0 0 0 0 0 0 0 0 0 0 0 0 0 0 0 0 0 0 0 0 0 0 0 0 0 0 0 0 0 0 0 0 0 0 0 0 0 0
0 0 0 0 0 0 0 0 0 0 0 0 0 0 0 0 0 0 0 0 0 0 0 0 0 0 0 0 0 0 0 0 0 0 0 0 0 0 0 0 0 0 0 0 0 0 0
0 0 0 0 0 0 0 0 0 0 0 0 0 0 0 0 0 0 0 0 0 0 0 0 0 0 0 0 0 0 0 0 0 0 0 0 0 0 0 0 0 0 0 0 0 0 0
0 0 0 0 0 0 0 0 0 0 0 0 0 0 0 0 0 0 0 0 0 0 0 0 0 0 0 0 0 0 0 0 0 0 0 0 0 0 0 0 0 0 0 0 0 0 0
0 0 0 0 0 0 0 0 0 0 0 0 0 0 0 0 0 0 0 0 0 0 0 0 0 0 0 0 0 0 0 0 0 0 0 0 0 0 0 0 0 0 0 0 0 0 0
0 0 0 0 0 0 0 0 0 0 0 0 0 0 0 0 0 0 0 0 0 0 0 0 0 0 0 0 0 0 0 0 0 0 0 0 0 0 0 0 0 0 0 0 0 0 0
0 0 0 0 0 0 0 0 0 0 0 0 0 0 0 0 0 0 0 0 0 0 0 0 0 0 0 0 0 0 0 0 0 0 0 0 0 0 0 0 0 0 0 0 0 0 0
0 0 0 0 0 0 0 0 0 0 0 0 0 0 0 0 0 0 0 0 0 0 0 0 0 0 0 0 0 0 0 0 0 0 0 0 0 0 0 0 0 0 0 0 0 0 0
0 0 0 0 0 0 0 0 0 0 -0 0 0 0 0 0 0 0 0 0 0 0 0 0 0 0 0 0 0 0 0 0 0 0 0 0 0 0 0 0 0 0 0 0 0 0 0
0 0 0 0 0 0 0 0 0 0 0 0 0 0 0 0 0 0 0 0 0 0 0 0 0 0 0 0 0 0 0 0 0 0 0 0 0 0 0 0 0 0 0 -0 0 0 0
0 0 0 0 0 0 0 0 0 0 0 0 0 0 0 0 0 0 0 0 0 0 0 0 0 0 0 0 0 0 0 0 0 0 0 0 0 0 0 0 0 0 0 0 0 0 0
0 0 0 0 0 0 0 0 0 0 0 0 0 0 0 0 0 0 0 0 0 0 0 0 0 0 0 0 0 0 0 0 0 0 0 0 0 0 0 0 0 0 0 0 0 0 0
0 0 0 0 0 0 0 0 0 0 0 0 0 0 0 0 0 0 0 0 0 0 0 0 0 0 0 0 0 0 0 0 0 0 0 0 0 0 0 0 0 0 0 0 0 0 0
0 0 0 0 0 0 0 0 0 0 0 0 0 0 0 0 0 0 0 0 0 0 0 0 0 0 0 0 0 0 0 0 0 0 0 0 0 0 0 0 0 0 0 0 0 0 0
0 0 0 0 0 0 0 0 0 0 0 0 -0 0 0 0 0 0 0 0 0 0 0 0 0 0 0 0 0 0 0 0 0 0 0 0 0 0 0 0 0 0 0 0 0 0 0
0 0 0 0 0 0 0 0 0 0 0 0 0 -0 0 0 0 0 0 0 0 0 0 0 0 0 0 0 0 0 0 0 0 0 0 0 0 0 0 0 0 0 0 0 0 0 0
Wind_Speed_500mb
8 10 13 7 6 6 7 9 10 11 13 14 14 15 17 19 21 23 23 22 21 21 19 16 14 11 4 1 3 9 14 13 12 8 3 3 10 9 11 5 8 18 13 10 12 13 20
13 14 15 6 3 4 6 7 8 10 11 13 15 17 18 20 23 26 27 26 24 22 22 18 13 8 1 10 5 6 10 12 10 7 8 4 4 8 7 6 12 5 16 22 14 14 17
18 20 15 9 2 1 3 4 5 6 8 11 13 15 18 21 24 27 30 31 29 26 20 15 11 5 1 6 3 4 8 8 9 8 6 3 2 5 3 5 5 10 14 14 15 7 7
20 17 15 12 10 8 5 3 4 7 7 8 11 14 16 19 24 29 32 32 30 22 15 12 7 1 4 3 1 4 7 8 8 7 4 2 4 2 2 3 6 9 7 9 11 3 3
21 20 16 17 13 11 12 13 12 13 14 14 16 18 20 22 25 29 33 35 27 20 12 11 4 5 3 2 1 4 6 4 6 6 5 3 2 2 3 7 11 10 12 11 4 8 10
26 21 14 15 17 14 20 23 24 23 21 20 19 20 24 24 26 28 30 32 21 13 18 8 5 5 2 3 6 10 9 7 2 3 3 2 4 7 8 10 5 9 13 7 13 9 13
20 31 17 17 17 20 18 23 22 28 29 32 33 31 32 30 29 30 30 22 14 5 20 4 8 8 8 15 15 11 10 5 3 3 5 4 7 15 9 6 7 9 13 22 22 11 13
16 12 14 14 16 21 21 21 21 26 27 29 27 28 32 30 33 26 25 13 11 11 15 17 10 6 13 9 6 6 5 3 5 7 5 7 13 7 5 1 5 8 15 13 16 5 9
25 25 23 26 28 26 25 27 26 23 26 27 25 27 29 26 25 24 17 13 19 24 11 3 3 2 3 1 3 3 3 2 5 8 12 15 6 7 3 6 10 14 14 11 11 20 15
21 27 24 26 25 21 27 25 24 24 23 24 22 21 25 23 18 8 10 16 20 24 7 4 1 3 5 2 5 3 2 2 5 6 5 9 8 8 9 12 8 14 6 3 11 15 7
20 21 20 21 20 23 27 24 26 24 24 22 20 16 16 14 10 10 11 15 14 9 9 6 3 3 5 7 7 1 1 2 6 6 5 8 7 9 12 6 9 5 2 7 10 5 7
29 29 36 30 44 38 34 33 36 34 33 31 24 17 12 11 9 8 8 5 7 2 14 5 2 1 3 1 4 7 3 2 2 4 7 2 2 4 6 2 3 3 8 7 3 4 7
19 28 37 43 43 42 45 43 44 41 36 31 28 22 18 12 8 2 3 5 2 8 6 6 1 3 3 1 1 4 5 9 7 5 10 8 9 7 6 7 6 6 9 5 6 5 5
26 26 25 21 22 28 30 35 38 38 33 32 29 22 19 14 14 8 7 3 12 4 9 2 4 4 4 5 4 2 5 8 10 7 4 7 8 11 11 4 4 10 4 6 11 8 8
27 24 25 27 25 22 26 26 32 30 26 20 20 20 24 18 20 12 5 7 10 9 4 7 5 7 7 5 4 4 8 4 3 11 9 5 5 8 4 3 6 9 7 5 3 4 6
28 31 28 28 25 26 24 25 23 23 15 15 13 16 26 27 24 17 3 12 8 3 6 5 7 6 6 8 5 4 5 6 5 3 1 6 7 4 7 1 3 6 3 4 5 9 11
36 35 36 34 30 29 27 28 25 23 13 13 15 11 17 38 30 14 11 12 9 13 14 10 5 4 10 3 4 2 6 5 4 6 8 3 2 7 3 10 3 5 6 8 6 6 9
41 39 39 38 40 37 34 29 23 20 10 15 14 8 14 37 16 11 13 11 4 11 17 11 5 9 8 7 5 7 8 6 6 8 5 3 2 7 11 7 3 2 4 7 8 6 7
40 42 44 42 38 43 40 31 28 21 15 18 11 13 16 43 13 16 5 7 15 11 14 14 16 15 7 8 6 12 4 5 5 6 5 9 5 5 8 4 5 10 13 13 8 5 23
50 47 49 48 44 44 47 44 31 26 27 26 8 5 15 31 26 22 16 13 13 18 29 18 10 10 7 11 17 4 4 2 4 6 6 4 6 13 23 17 5 8 17 22 20 10 19
51 52 55 52 58 42 49 45 43 33 31 35 18 10 18 10 24 25 32 11 17 18 20 27 12 30 20 13 16 9 13 9 11 12 10 2 12 13 25 28 25 27 30 29 30 38 21
53 48 51 59 52 62 46 52 53 42 34 43 18 10 10 13 27 33 40 35 30 20 20 13 31 23 36 27 23 10 15 14 12 14 13 7 6 2 9 16 18 28 38 35 42 48 47
60 57 58 55 63 55 61 53 54 57 48 53 46 45 14 20 22 23 35 41 36 41 28 43 26 29 23 29 38 33 15 14 9 13 18 14 8 7 12 5 6 19 22 38 30 36 37
56 59 62 62 57 59 65 60 64 61 68 62 52 42 28 24 22 32 26 43 44 42 40 20 43 31 7 10 14 16 12 12 25 26 25 13 12 7 9 2 21 17 5 15 24 33 36
58 55 57 59 62 57 63 68 66 76 70 82 72 62 26 26 40 40 41 34 39 42 45 38 28 12 21 13 4 10 6 5 17 31 36 27 15 8 10 19 31 46 35 27 20 25 29
58 59 58 57 64 69 64 65 67 64 79 69 95 83 55 20 37 53 44 45 29 22 21 33 43 26 25 6 10 22 16 6 10 7 2 17 27 15 15 15 18 21 10 13 12 19 24
58 55 54 58 63 62 66 65 68 61 66 69 60 100 68 47 74 40 36 34 47 36 19 13 17 18 42 14 20 21 21 13 19 13 13 12 10 33 29 22 19 23 22 19 11 17 26
56 57 56 56 57 61 63 64 61 64 65 63 73 65 88 45 70 52 72 41 27 45 22 12 11 18 12 20 15 18 20 21 23 20 16 24 20 17 20 20 35 25 24 19 17 13 14
61 63 59 62 58 60 62 65 61 60 61 62 75 72 63 66 42 59 83 65 78 68 45 41 18 12 27 14 16 11 15 9 20 24 21 16 25 18 22 19 20 19 18 37 22 17 23
Wind_Direction_500mb
323 316 311 342 11 27 31 31 28 27 25 26 25 22 18 13 7 1 357 352 347 341 335 336 340 350 9 326 223 323 349 352 1 0 343 268 242 262 245 241 242 244 277 267 265 268 273
294 292 285 297 14 61 64 60 48 41 38 29 23 19 18 12 5 358 352 346 340 334 330 330 333 342 131 238 249 336 352 0 7 26 12 8 313 274 292 247 243 347 283 275 273 269 271
260 266 264 266 279 13 87 59 43 32 23 16 11 11 5 2 360 354 348 341 333 328 324 324 326 335 84 176 240 347 8 10 15 30 21 0 192 318 294 255 284 295 294 270 235 262 269
262 262 259 264 269 279 283 306 338 331 332 338 344 347 350 351 348 345 343 339 332 328 326 320 324 74 182 219 230 357 7 7 14 13 2 38 109 144 314 275 251 262 258 274 117 283 140
266 269 258 263 275 288 299 301 300 302 306 312 319 326 332 337 339 339 339 339 335 334 343 338 325 149 150 126 30 332 8 350 348 358 358 12 52 219 218 261 256 197 291 270 277 47 322
264 259 269 276 289 289 297 300 299 301 299 299 297 307 317 324 331 337 342 337 330 344 352 2 70 148 119 245 303 312 318 331 273 345 305 293 249 256 222 231 265 323 292 274 285 36 313
272 244 251 266 284 269 292 291 303 309 305 302 299 303 305 308 319 333 345 354 347 324 338 287 293 291 291 295 298 296 297 319 276 207 247 60 263 235 12 342 318 298 282 282 292 32 308
292 261 270 279 276 281 289 291 303 307 313 310 295 302 307 314 318 321 343 22 25 329 306 298 294 281 278 286 279 325 307 245 224 235 169 209 240 57 78 141 263 260 288 289 289 15 302
258 270 271 274 277 279 280 289 295 303 308 313 307 302 304 312 314 320 328 353 344 341 264 263 247 316 274 301 257 291 18 237 247 224 219 257 72 124 222 227 263 252 255 295 282 319 265
225 250 257 266 257 272 278 272 290 298 303 313 313 311 308 304 306 323 329 329 336 342 292 174 111 354 348 336 231 271 155 128 198 256 219 266 109 202 227 252 227 277 46 281 297 337 302
264 257 237 244 261 266 280 280 285 290 297 300 309 328 327 341 293 284 288 303 324 3 298 55 72 327 349 308 342 339 169 190 231 170 212 86 179 202 238 265 199 11 348 310 310 296 323
259 266 268 273 275 274 265 266 275 281 283 281 287 293 311 330 316 313 313 342 351 90 247 102 108 354 294 354 324 316 261 158 111 206 218 297 119 240 343 97 260 61 275 226 245 168 242
294 278 273 273 273 272 272 272 275 277 273 269 270 277 275 279 254 270 354 52 343 215 345 317 38 6 330 332 220 324 283 217 207 150 214 172 197 145 194 225 179 244 280 276 249 217 274
294 300 295 295 296 289 285 281 275 272 267 261 258 250 258 256 196 156 100 43 213 224 218 199 243 237 272 344 175 227 263 269 233 254 265 236 231 187 151 265 10 187 297 298 289 287 348
299 294 288 292 287 296 302 295 288 274 265 259 246 234 235 232 218 199 197 214 222 215 151 186 184 228 187 188 259 285 223 253 324 224 242 247 182 117 76 344 308 133 204 55 293 142 271
298 299 302 301 295 287 287 303 307 298 234 194 211 224 238 219 222 208 182 235 243 249 142 103 226 230 251 180 199 189 209 154 171 201 329 43 276 27 90 222 168 283 30 237 172 282 273
301 295 295 296 299 290 295 282 297 299 220 183 203 228 240 211 203 198 219 225 245 225 201 214 237 268 239 251 234 231 281 139 243 160 195 197 248 109 172 198 240 159 227 221 285 241 275
284 286 288 286 285 284 286 282 280 291 213 191 210 233 224 189 177 204 211 193 263 214 209 230 210 239 227 209 224 248 251 232 142 172 187 134 229 231 239 96 47 56 297 241 261 214 254
283 277 276 279 280 279 284 283 273 261 213 197 226 233 206 186 211 213 206 244 245 205 204 197 212 219 210 215 239 220 200 32 164 210 192 174 193 278 184 178 185 223 195 217 224 263 255
274 278 271 269 270 266 274 277 274 251 219 223 234 230 201 212 232 229 200 222 224 221 235 214 225 179 164 216 226 202 226 196 195 210 253 184 206 241 261 317 40 210 207 213 207 234 272
290 283 270 263 261 273 258 260 259 252 221 223 224 231 202 208 230 220 230 190 209 212 217 215 239 207 195 217 218 209 229 233 208 198 185 156 250 231 259 277 282 266 263 246 225 238 247
289 287 281 267 269 255 260 250 246 234 217 229 225 217 214 241 225 207 220 230 215 225 189 216 228 209 221 227 210 191 216 222 231 175 179 174 250 137 262 247 269 268 259 255 250 255 256
289 285 281 277 266 266 255 253 247 232 214 222 237 239 242 240 218 224 218 228 233 217 241 231 219 235 227 231 240 252 283 263 248 181 197 182 202 207 250 84 313 271 242 226 244 243 242
290 284 280 278 265 265 255 253 244 240 228 223 223 229 238 246 226 220 232 230 233 232 238 231 232 233 238 205 228 263 274 255 236 229 184 188 186 202 274 133 256 250 186 237 248 244 240
291 287 288 275 281 265 255 254 249 242 241 224 226 219 233 249 243 246 237 241 245 240 240 239 223 227 222 174 213 250 218 252 228 225 219 216 192 226 243 240 282 293 278 264 211 263 245
284 288 290 284 278 272 264 254 254 249 241 244 223 224 218 267 240 244 242 231 231 237 246 242 237 224 195 158 208 233 227 181 204 223 331 227 218 210 214 241 256 265 116 137 132 267 256
283 286 288 287 282 280 271 261 250 251 248 251 253 220 213 222 243 238 227 230 231 225 240 204 176 178 201 209 232 238 229 192 233 198 174 179 201 221 228 239 256 257 159 158 229 284 166
282 281 285 286 283 281 278 269 256 248 251 249 256 255 216 224 239 222 226 218 211 215 217 154 152 207 200 220 230 225 245 225 232 233 175 182 181 208 225 233 248 195 140 216 255 285 207
282 280 281 281 283 282 274 269 260 252 252 251 256 259 255 225 244 232 232 227 223 225 224 202 216 148 196 206 212 215 228 194 223 234 194 220 211 209 204 216 244 195 227 228 240 281 279
Wind_Speed_850mb
8 10 13 7 6 6 7 9 10 11 13 14 14 15 17 19 21 23 23 22 21 21 19 16 14 11 4 1 3 9 14 13 12 8 3 3 10 9 11 5 8 18 13 10 12 13 20
13 14 15 6 3 4 6 7 8 10 11 13 15 17 18 20 23 26 27 26 24 22 22 18 13 8 1 10 5 6 10 12 10 7 8 4 4 8 7 6 12 5 16 22 14 14 17
18 20 15 9 2 1 3 4 5 6 8 11 13 15 18 21 24 27 30 31 29 26 20 15 11 5 1 6 3 4 8 8 9 8 6 3 2 5 3 5 5 10 14 14 15 7 7
20 17 15 12 10 8 5 3 4 7 7 8 11 14 16 19 24 29 32 32 30 22 15 12 7 1 4 3 1 4 7 8 8 7 4 2 4 2 2 3 6 9 7 9 11 3 3
21 20 16 17 13 11 12 13 12 13 14 14 16 18 20 22 25 29 33 35 27 20 12 11 4 5 3 2 1 4 6 4 6 6 5 3 2 2 3 7 11 10 12 11 4 8 10
26 21 14 15 17 14 20 23 24 23 21 20 19 20 24 24 26 28 30 32 21 13 18 8 5 5 2 3 6 10 9 7 2 3 3 2 4 7 8 10 5 9 13 7 13 9 13
20 31 17 17 17 20 18 23 22 28 29 32 33 31 32 30 29 30 30 22 14 5 20 4 8 8 8 15 15 11 10 5 3 3 5 4 7 15 9 6 7 9 13 22 22 11 13
16 12 14 14 16 21 21 21 21 26 27 29 27 28 32 30 33 26 25 13 11 11 15 17 10 6 13 9 6 6 5 3 5 7 5 7 13 7 5 1 5 8 15 13 16 5 9
25 25 23 26 28 26 25 27 26 23 26 27 25 27 29 26 25 24 17 13 19 24 11 3 3 2 3 1 3 3 3 2 5 8 12 15 6 7 3 6 10 14 14 11 11 20 15
21 27 24 26 25 21 27 25 24 24 23 24 22 21 25 23 18 8 10 16 20 24 7 4 1 3 5 2 5 3 2 2 5 6 5 9 8 8 9 12 8 14 6 3 11 15 7
20 21 20 21 20 23 27 24 26 24 24 22 20 16 16 14 10 10 11 15 14 9 9 6 3 3 5 7 7 1 1 2 6 6 5 8 7 9 12 6 9 5 2 7 10 5 7
29 29 36 30 44 38 34 33 36 34 33 31 24 17 12 11 9 8 8 5 7 2 14 5 2 1 3 1 4 7 3 2 2 4 7 2 2 4 6 2 3 3 8 7 3 4 7
19 28 37 43 43 42 45 43 44 41 36 31 28 22 18 12 8 2 3 5 2 8 6 6 1 3 3 1 1 4 5 9 7 5 10 8 9 7 6 7 6 6 9 5 6 5 5
26 26 25 21 22 28 30 35 38 38 33 32 29 22 19 14 14 8 7 3 12 4 9 2 4 4 4 5 4 2 5 8 10 7 4 7 8 11 11 4 4 10 4 6 11 8 8
27 24 25 27 25 22 26 26 32 30 26 20 20 20 24 18 20 12 5 7 10 9 4 7 5 7 7 5 4 4 8 4 3 11 9 5 5 8 4 3 6 9 7 5 3 4 6
28 31 28 28 25 26 24 25 23 23 15 15 13 16 26 27 24 17 3 12 8 3 6 5 7 6 6 8 5 4 5 6 5 3 1 6 7 4 7 1 3 6 3 4 5 9 11
36 35 36 34 30 29 27 28 25 23 13 13 15 11 17 38 30 14 11 12 9 13 14 10 5 4 10 3 4 2 6 5 4 6 8 3 2 7 3 10 3 5 6 8 6 6 9
41 39 39 38 40 37 34 29 23 20 10 15 14 8 14 37 16 11 13 11 4 11 17 11 5 9 8 7 5 7 8 6 6 8 5 3 2 7 11 7 3 2 4 7 8 6 7
40 42 44 42 38 43 40 31 28 21 15 18 11 13 16 43 13 16 5 7 15 11 14 14 16 15 7 8 6 12 4 5 5 6 5 9 5 5 8 4 5 10 13 13 8 5 23
50 47 49 48 44 44 47 44 31 26 27 26 8 5 15 31 26 22 16 13 13 18 29 18 10 10 7 11 17 4 4 2 4 6 6 4 6 13 23 17 5 8 17 22 20 10 19
51 52 55 52 58 42 49 45 43 33 31 35 18 10 18 10 24 25 32 11 17 18 20 27 12 30 20 13 16 9 13 9 11 12 10 2 12 13 25 28 25 27 30 29 30 38 21
53 48 51 59 52 62 46 52 53 42 34 43 18 10 10 13 27 33 40 35 30 20 20 13 31 23 36 27 23 10 15 14 12 14 13 7 6 2 9 16 18 28 38 35 42 48 47
60 57 58 55 63 55 61 53 54 57 48 53 46 45 14 20 22 23 35 41 36 41 28 43 26 29 23 29 38 33 15 14 9 13 18 14 8 7 12 5 6 19 22 38 30 36 37
56 59 62 62 57 59 65 60 64 61 68 62 52 42 28 24 22 32 26 43 44 42 40 20 43 31 7 10 14 16 12 12 25 26 25 13 12 7 9 2 21 17 5 15 24 33 36
58 55 57 59 62 57 63 68 66 76 70 82 72 62 26 26 40 40 41 34 39 42 45 38 28 12 21 13 4 10 6 5 17 31 36 27 15 8 10 19 31 46 35 27 20 25 29
58 59 58 57 64 69 64 65 67 64 79 69 95 83 55 20 37 53 44 45 29 22 21 33 43 26 25 6 10 22 16 6 10 7 2 17 27 15 15 15 18 21 10 13 12 19 24
58 55 54 58 63 62 66 65 68 61 66 69 60 100 68 47 74 40 36 34 47 36 19 13 17 18 42 14 20 21 21 13 19 13 13 12 10 33 29 22 19 23 22 19 11 17 26
56 57 56 56 57 61 63 64 61 64 65 63 73 65 88 45 70 52 72 41 27 45 22 12 11 18 12 20 15 18 20 21 23 20 16 24 20 17 20 20 35 25 24 19 17 13 14
61 63 59 62 58 60 62 65 61 60 61 62 75 72 63 66 42 59 83 65 78 68 45 41 18 12 27 14 16 11 15 9 20 24 21 16 25 18 22 19 20 19 18 37 22 17 23
Wind_Direction_850mb
323 316 311 342 11 27 31 31 28 27 25 26 25 22 18 13 7 1 357 352 347 341 335 336 340 350 9 326 223 323 349 352 1 0 343 268 242 262 245 241 242 244 277 267 265 268 273
294 292 285 297 14 61 64 60 48 41 38 29 23 19 18 12 5 358 352 346 340 334 330 330 333 342 131 238 249 336 352 0 7 26 12 8 313 274 292 247 243 347 283 275 273 269 271
260 266 264 266 279 13 87 59 43 32 23 16 11 11 5 2 360 354 348 341 333 328 324 324 326 335 84 176 240 347 8 10 15 30 21 0 192 318 294 255 284 295 294 270 235 262 269
262 262 259 264 269 279 283 306 338 331 332 338 344 347 350 351 348 345 343 339 332 328 326 320 324 74 182 219 230 357 7 7 14 13 2 38 109 144 314 275 251 262 258 274 117 283 140
266 269 258 263 275 288 299 301 300 302 306 312 319 326 332 337 339 339 339 339 335 334 343 338 325 149 150 126 30 332 8 350 348 358 358 12 52 219 218 261 256 197 291 270 277 47 322
264 259 269 276 289 289 297 300 299 301 299 299 297 307 317 324 331 337 342 337 330 344 352 2 70 148 119 245 303 312 318 331 273 345 305 293 249 256 222 231 265 323 292 274 285 36 313
272 244 251 266 284 269 292 291 303 309 305 302 299 303 305 308 319 333 345 354 347 324 338 287 293 291 291 295 298 296 297 319 276 207 247 60 263 235 12 342 318 298 282 282 292 32 308
292 261 270 279 276 281 289 291 303 307 313 310 295 302 307 314 318 321 343 22 25 329 306 298 294 281 278 286 279 325 307 245 224 235 169 209 240 57 78 141 263 260 288 289 289 15 302
258 270 271 274 277 279 280 289 295 303 308 313 307 302 304 312 314 320 328 353 344 341 264 263 247 316 274 301 257 291 18 237 247 224 219 257 72 124 222 227 263 252 255 295 282 319 265
225 250 257 266 257 272 278 272 290 298 303 313 313 311 308 304 306 323 329 329 336 342 292 174 111 354 348 336 231 271 155 128 198 256 219 266 109 202 227 252 227 277 46 281 297 337 302
264 257 237 244 261 266 280 280 285 290 297 300 309 328 327 341 293 284 288 303 324 3 298 55 72 327 349 308 342 339 169 190 231 170 212 86 179 202 238 265 199 11 348 310 310 296 323
259 266 268 273 275 274 265 266 275 281 283 281 287 293 311 330 316 313 313 342 351 90 247 102 108 354 294 354 324 316 261 158 111 206 218 297 119 240 343 97 260 61 275 226 245 168 242
294 278 273 273 273 272 272 272 275 277 273 269 270 277 275 279 254 270 354 52 343 215 345 317 38 6 330 332 220 324 283 217 207 150 214 172 197 145 194 225 179 244 280 276 249 217 274
294 300 295 295 296 289 285 281 275 272 267 261 258 250 258 256 196 156 100 43 213 224 218 199 243 237 272 344 175 227 263 269 233 254 265 236 231 187 151 265 10 187 297 298 289 287 348
299 294 288 292 287 296 302 295 288 274 265 259 246 234 235 232 218 199 197 214 222 215 151 186 184 228 187 188 259 285 223 253 324 224 242 247 182 117 76 344 308 133 204 55 293 142 271
298 299 302 301 295 287 287 303 307 298 234 194 211 224 238 219 222 208 182 235 243 249 142 103 226 230 251 180 199 189 209 154 171 201 329 43 276 27 90 222 168 283 30 237 172 282 273
301 295 295 296 299 290 295 282 297 299 220 183 203 228 240 211 203 198 219 225 245 225 201 214 237 268 239 251 234 231 281 139 243 160 195 197 248 109 172 198 240 159 227 221 285 241 275
284 286 288 286 285 284 286 282 280 291 213 191 210 233 224 189 177 204 211 193 263 214 209 230 210 239 227 209 224 248 251 232 142 172 187 134 229 231 239 96 47 56 297 241 261 214 254
283 277 276 279 280 279 284 283 273 261 213 197 226 233 206 186 211 213 206 244 245 205 204 197 212 219 210 215 239 220 200 32 164 210 192 174 193 278 184 178 185 223 195 217 224 263 255
274 278 271 269 270 266 274 277 274 251 219 223 234 230 201 212 232 229 200 222 224 221 235 214 225 179 164 216 226 202 226 196 195 210 253 184 206 241 261 317 40 210 207 213 207 234 272
290 283 270 263 261 273 258 260 259 252 221 223 224 231 202 208 230 220 230 190 209 212 217 215 239 207 195 217 218 209 229 233 208 198 185 156 250 231 259 277 282 266 263 246 225 238 247
289 287 281 267 269 255 260 250 246 234 217 229 225 217 214 241 225 207 220 230 215 225 189 216 228 209 221 227 210 191 216 222 231 175 179 174 250 137 262 247 269 268 259 255 250 255 256
289 285 281 277 266 266 255 253 247 232 214 222 237 239 242 240 218 224 218 228 233 217 241 231 219 235 227 231 240 252 283 263 248 181 197 182 202 207 250 84 313 271 242 226 244 243 242
290 284 280 278 265 265 255 253 244 240 228 223 223 229 238 246 226 220 232 230 233 232 238 231 232 233 238 205 228 263 274 255 236 229 184 188 186 202 274 133 256 250 186 237 248 244 240
291 287 288 275 281 265 255 254 249 242 241 224 226 219 233 249 243 246 237 241 245 240 240 239 223 227 222 174 213 250 218 252 228 225 219 216 192 226 243 240 282 293 278 264 211 263 245
284 288 290 284 278 272 264 254 254 249 241 244 223 224 218 267 240 244 242 231 231 237 246 242 237 224 195 158 208 233 227 181 204 223 331 227 218 210 214 241 256 265 116 137 132 267 256
283 286 288 287 282 280 271 261 250 251 248 251 253 220 213 222 243 238 227 230 231 225 240 204 176 178 201 209 232 238 229 192 233 198 174 179 201 221 228 239 256 257 159 158 229 284 166
282 281 285 286 283 281 278 269 256 248 251 249 256 255 216 224 239 222 226 218 211 215 217 154 152 207 200 220 230 225 245 225 232 233 175 182 181 208 225 233 248 195 140 216 255 285 207
282 280 281 281 283 282 274 269 260 252 252 251 256 259 255 225 244 232 232 227 223 225 224 202 216 148 196 206 212 215 228 194 223 234 194 220 211 209 204 216 244 195 227 228 240 281 279